This is the latest recevied weather packets stored in our database for station/object KQ4WWD. If no packets are shown the sender has not sent any weather packets the latest 10 day(s).
| Time | Temp. | Humidity | Pressure | Rain* | Wind** | Luminosity | Snow |
|---|---|---|---|---|---|---|---|
| 1788552176 | 26.67° C | 93% | 1013.2 hPa | 3.05 mm | - | 110 W/m² | - |
| 1788551875 | 26.11° C | 93% | 1013.4 hPa | 3.05 mm | - | 87 W/m² | - |
| 1788551574 | 26.67° C | 93% | 1013.7 hPa | 13.72 mm | - | 70 W/m² | - |
| 1788551269 | 26.67° C | 92% | 1013.8 hPa | 31.75 mm | - | 65 W/m² | - |
| 1788550968 | 26.67° C | 92% | 1014.2 hPa | 38.35 mm | - | 35 W/m² | - |
| 1788550663 | 27.22° C | 91% | 1014.4 hPa | 19.81 mm | - | 19 W/m² | - |
| 1788550359 | 29.44° C | 88% | 1013.9 hPa | 1.27 mm | - | 20 W/m² | - |
| 1788550054 | 29.44° C | 84% | 1013.6 hPa | 0 mm | - | 23 W/m² | - |
| 1788549750 | 30.56° C | 82% | 1013.4 hPa | 0 mm | - | 39 W/m² | - |
| 1788549446 | 33.33° C | 75% | 1013.4 hPa | 0 mm | - | 90 W/m² | - |
| 1788549142 | 33.89° C | 70% | 1013.4 hPa | 0 mm | - | 128 W/m² | - |
| 1788548839 | 34.44° C | 68% | 1013.5 hPa | 0 mm | - | 134 W/m² | - |
| 1788548534 | 35° C | 66% | 1013.4 hPa | 0 mm | - | 279 W/m² | - |
| 1788548231 | 35° C | 64% | 1013.5 hPa | 0 mm | - | 527 W/m² | - |
| 1788547925 | 35° C | 64% | 1013.8 hPa | 0 mm | - | 553 W/m² | - |
| 1788547623 | 33.89° C | 68% | 1013.7 hPa | 0 mm | - | 674 W/m² | - |
| 1788547320 | 35° C | 65% | 1013.8 hPa | 0 mm | - | 596 W/m² | - |
| 1788547015 | 34.44° C | 66% | 1013.9 hPa | 0 mm | - | 741 W/m² | - |
| 1788546715 | 33.89° C | 67% | 1014 hPa | 0 mm | - | 765 W/m² | - |
| 1788546411 | 34.44° C | 67% | 1014.1 hPa | 0 mm | - | 751 W/m² | - |
| 1788546105 | 34.44° C | 67% | 1014.3 hPa | 0 mm | - | 194 W/m² | - |
| 1788545802 | 33.89° C | 68% | 1014.2 hPa | 0 mm | - | 173 W/m² | - |
| 1788545501 | 34.44° C | 67% | 1014.2 hPa | 0 mm | - | 244 W/m² | - |
| 1788545197 | 34.44° C | 66% | 1014.2 hPa | 0 mm | - | 231 W/m² | - |
| 1788544892 | 34.44° C | 67% | 1014.3 hPa | 0 mm | - | 173 W/m² | - |
* Rain latest hour (hover to see other rain measurements)
** Current wind speed in m/s (hover to see current wind gust speed)